Time,TemperatureF,DewpointF,PressureIn,WindDirection,WindDirectionDegrees,WindSpeedMPH,WindSpeedGustMPH,Humidity,HourlyPrecipIn,Conditions,Clouds,dailyrainin,SoftwareType,DateUTC
2013-07-17 00:02:00,78.0,75.0,30.15,ENE,65,2.0,5.0,90,0.00,,,0.18,,2013-07-17 05:02:00,
2013-07-17 00:11:00,78.0,75.0,30.16,ENE,71,2.0,5.0,90,0.00,,,0.18,,2013-07-17 05:11:00,
2013-07-17 00:22:00,78.0,75.0,30.16,NE,55,3.0,5.0,91,0.00,,,0.18,,2013-07-17 05:22:00,
2013-07-17 00:32:00,78.0,75.0,30.16,ENE,75,3.0,7.0,91,0.00,,,0.18,,2013-07-17 05:32:00,
2013-07-17 00:43:00,78.0,75.0,30.16,ENE,78,5.0,8.0,91,0.00,,,0.18,,2013-07-17 05:43:00,
2013-07-17 00:52:00,77.0,74.0,30.15,ENE,61,1.0,8.0,91,0.00,,,0.18,,2013-07-17 05:52:00,
2013-07-17 01:01:00,77.0,74.0,30.15,ENE,61,1.0,8.0,91,0.00,,,0.18,,2013-07-17 06:01:00,
2013-07-17 01:11:00,77.0,74.0,30.16,ENE,58,3.0,6.0,91,0.00,,,0.18,,2013-07-17 06:11:00,
2013-07-17 01:22:00,77.0,74.0,30.16,ENE,74,3.0,7.0,91,0.00,,,0.18,,2013-07-17 06:22:00,
2013-07-17 01:32:00,77.0,74.0,30.16,ENE,69,3.0,6.0,91,0.00,,,0.18,,2013-07-17 06:32:00,
2013-07-17 01:43:00,77.0,74.0,30.16,ENE,67,5.0,8.0,91,0.00,,,0.18,,2013-07-17 06:43:00,
2013-07-17 01:52:00,77.0,74.0,30.16,East,85,3.0,8.0,91,0.00,,,0.18,,2013-07-17 06:52:00,
2013-07-17 02:11:00,77.0,74.0,30.15,ENE,75,3.0,6.0,91,0.00,,,0.18,,2013-07-17 07:11:00,
2013-07-17 02:22:00,77.0,74.0,30.14,NE,35,4.0,9.0,92,0.00,,,0.18,,2013-07-17 07:22:00,
2013-07-17 02:32:00,76.0,74.0,30.13,NE,38,5.0,8.0,92,0.00,,,0.18,,2013-07-17 07:32:00,
2013-07-17 02:42:00,76.0,74.0,30.13,ENE,67,3.0,8.0,92,0.00,,,0.18,,2013-07-17 07:42:00,
2013-07-17 02:52:00,76.0,74.0,30.13,ENE,76,5.0,7.0,92,0.00,,,0.18,,2013-07-17 07:52:00,
2013-07-17 03:01:00,76.0,74.0,30.13,ENE,65,327.0,327.0,92,-99.99,,,-99.99,,2013-07-17 08:01:00,
2013-07-17 03:11:00,76.0,74.0,30.12,ENE,70,327.0,327.0,93,-99.99,,,-99.99,,2013-07-17 08:11:00,
2013-07-17 03:22:00,76.0,74.0,30.12,East,83,4.0,9.0,93,0.00,,,0.18,,2013-07-17 08:22:00,
2013-07-17 03:32:00,76.0,74.0,30.13,ENE,71,3.0,6.0,93,0.00,,,0.18,,2013-07-17 08:32:00,
2013-07-17 03:43:00,76.0,74.0,30.13,ENE,68,4.0,8.0,94,0.00,,,0.18,,2013-07-17 08:43:00,
2013-07-17 03:53:00,76.0,74.0,30.13,ENE,66,5.0,8.0,94,0.00,,,0.18,,2013-07-17 08:53:00,
2013-07-17 04:02:00,76.0,74.0,30.13,ENE,61,4.0,6.0,94,0.00,,,0.18,,2013-07-17 09:02:00,
2013-07-17 04:12:00,76.0,74.0,30.13,ENE,78,5.0,7.0,94,0.00,,,0.18,,2013-07-17 09:12:00,
2013-07-17 04:22:00,76.0,74.0,30.13,ENE,65,4.0,6.0,94,0.00,,,0.18,,2013-07-17 09:22:00,
2013-07-17 04:32:00,76.0,74.0,30.13,ENE,58,4.0,10.0,94,0.00,,,0.18,,2013-07-17 09:32:00,
2013-07-17 04:43:00,76.0,74.0,30.13,ENE,69,3.0,7.0,94,0.00,,,0.18,,2013-07-17 09:43:00,
2013-07-17 04:52:00,76.0,74.0,30.13,ENE,63,2.0,5.0,94,0.00,,,0.18,,2013-07-17 09:52:00,
2013-07-17 05:01:00,75.0,73.0,30.14,ENE,59,1.0,4.0,94,0.00,,,0.18,,2013-07-17 10:01:00,
2013-07-17 05:11:00,75.0,73.0,30.14,NE,54,3.0,5.0,95,0.00,,,0.18,,2013-07-17 10:11:00,
2013-07-17 05:22:00,75.0,73.0,30.14,ENE,66,2.0,5.0,95,0.00,,,0.18,,2013-07-17 10:22:00,
2013-07-17 05:32:00,75.0,73.0,30.15,NE,55,2.0,6.0,95,0.00,,,0.18,,2013-07-17 10:32:00,
2013-07-17 05:43:00,75.0,73.0,30.15,NE,46,5.0,8.0,95,0.00,,,0.18,,2013-07-17 10:43:00,
2013-07-17 05:52:00,75.0,73.0,30.15,ENE,78,3.0,7.0,95,0.00,,,0.18,,2013-07-17 10:52:00,
2013-07-17 06:02:00,75.0,73.0,30.15,NE,47,3.0,7.0,95,0.00,,,0.18,,2013-07-17 11:02:00,
2013-07-17 06:11:00,75.0,73.0,30.15,ENE,75,4.0,7.0,95,0.00,,,0.18,,2013-07-17 11:11:00,
2013-07-17 06:22:00,75.0,73.0,30.15,ENE,61,5.0,8.0,95,0.00,,,0.18,,2013-07-17 11:22:00,
2013-07-17 06:32:00,75.0,73.0,30.15,ENE,67,5.0,9.0,95,0.00,,,0.18,,2013-07-17 11:32:00,
2013-07-17 06:42:00,75.0,73.0,30.15,East,86,4.0,7.0,95,0.00,,,0.18,,2013-07-17 11:42:00,
2013-07-17 06:52:00,75.0,73.0,30.15,ENE,69,4.0,7.0,95,0.00,,,0.18,,2013-07-17 11:52:00,
2013-07-17 07:01:00,75.0,73.0,30.15,ENE,67,2.0,7.0,95,0.00,,,0.18,,2013-07-17 12:01:00,
2013-07-17 07:12:00,76.0,74.0,30.16,ENE,76,4.0,7.0,95,0.00,,,0.18,,2013-07-17 12:12:00,
2013-07-17 07:22:00,76.0,74.0,30.16,ENE,61,3.0,7.0,95,0.00,,,0.18,,2013-07-17 12:22:00,
2013-07-17 07:32:00,76.0,74.0,30.16,ENE,76,4.0,8.0,95,0.00,,,0.18,,2013-07-17 12:32:00,
2013-07-17 07:42:00,76.0,74.0,30.17,ENE,71,5.0,9.0,95,0.00,,,0.18,,2013-07-17 12:42:00,
2013-07-17 07:53:00,76.0,74.0,30.17,ENE,68,4.0,10.0,95,0.00,,,0.18,,2013-07-17 12:53:00,
2013-07-17 08:01:00,77.0,75.0,30.18,East,81,5.0,-999.0,95,-99.99,,,-99.99,,2013-07-17 13:01:00,
2013-07-17 08:12:00,77.0,75.0,30.19,ENE,74,5.0,14.0,94,0.00,,,0.18,,2013-07-17 13:12:00,
2013-07-17 08:22:00,77.0,75.0,30.19,ENE,59,3.0,9.0,94,0.00,,,0.18,,2013-07-17 13:22:00,
2013-07-17 08:32:00,78.0,76.0,30.19,NE,56,6.0,12.0,93,0.00,,,0.18,,2013-07-17 13:32:00,
2013-07-17 08:43:00,78.0,75.0,30.19,ENE,71,6.0,10.0,92,0.00,,,0.18,,2013-07-17 13:43:00,
2013-07-17 08:52:00,78.0,75.0,30.19,ENE,59,5.0,11.0,92,0.00,,,0.18,,2013-07-17 13:52:00,
2013-07-17 09:02:00,79.0,76.0,30.20,ENE,74,4.0,9.0,91,0.00,,,0.18,,2013-07-17 14:02:00,
2013-07-17 09:11:00,79.0,76.0,30.19,NE,38,327.0,327.0,90,-99.99,,,-99.99,,2013-07-17 14:11:00,
2013-07-17 09:22:00,80.0,76.0,30.19,ENE,77,7.0,11.0,89,0.00,,,0.18,,2013-07-17 14:22:00,
2013-07-17 09:32:00,81.0,77.0,30.19,SE,143,5.0,12.0,87,0.00,,,0.18,,2013-07-17 14:32:00,
2013-07-17 09:43:00,81.0,77.0,30.19,NE,52,5.0,13.0,87,0.00,,,0.18,,2013-07-17 14:43:00,
2013-07-17 09:52:00,82.0,77.0,30.20,East,87,5.0,11.0,86,0.00,,,0.18,,2013-07-17 14:52:00,
2013-07-17 10:02:00,83.0,78.0,30.21,ENE,66,7.0,12.0,84,0.00,,,0.18,,2013-07-17 15:02:00,
2013-07-17 10:12:00,83.0,77.0,30.21,East,97,3.0,12.0,81,0.00,,,0.18,,2013-07-17 15:12:00,
2013-07-17 10:22:00,84.0,78.0,30.21,ENE,76,5.0,10.0,82,0.00,,,0.18,,2013-07-17 15:22:00,
2013-07-17 10:32:00,84.0,77.0,30.21,East,84,4.0,11.0,80,0.00,,,0.18,,2013-07-17 15:32:00,
2013-07-17 10:42:00,85.0,77.0,30.21,ENE,57,7.0,12.0,78,0.00,,,0.18,,2013-07-17 15:42:00,
2013-07-17 10:52:00,85.0,77.0,30.21,ENE,59,7.0,11.0,78,0.00,,,0.18,,2013-07-17 15:52:00,
2013-07-17 11:02:00,85.0,76.0,30.21,NE,40,7.0,11.0,75,0.00,,,0.18,,2013-07-17 16:02:00,
2013-07-17 11:11:00,85.0,76.0,30.21,NE,56,6.0,12.0,75,0.00,,,0.18,,2013-07-17 16:11:00,
2013-07-17 11:22:00,85.0,77.0,30.21,East,84,5.0,15.0,76,0.00,,,0.18,,2013-07-17 16:22:00,
2013-07-17 11:33:00,85.0,76.0,30.21,NE,49,5.0,13.0,75,0.00,,,0.18,,2013-07-17 16:33:00,
2013-07-17 11:42:00,86.0,77.0,30.21,NE,53,4.0,10.0,74,0.00,,,0.18,,2013-07-17 16:42:00,
2013-07-17 11:52:00,86.0,77.0,30.21,NE,53,4.0,10.0,74,0.00,,,0.18,,2013-07-17 16:52:00,
2013-07-17 12:02:00,88.0,77.0,30.21,NE,36,4.0,12.0,71,0.00,,,0.18,,2013-07-17 17:02:00,
2013-07-17 12:11:00,88.0,76.0,30.21,ENE,63,7.0,14.0,68,0.00,,,0.18,,2013-07-17 17:11:00,
2013-07-17 12:22:00,89.0,77.0,30.20,ENE,78,5.0,12.0,67,0.00,,,0.18,,2013-07-17 17:22:00,
2013-07-17 12:32:00,89.0,77.0,30.20,ENE,65,5.0,14.0,67,0.00,,,0.18,,2013-07-17 17:32:00,
2013-07-17 12:43:00,89.0,75.0,30.20,ENE,78,3.0,11.0,63,0.00,,,0.18,,2013-07-17 17:43:00,
2013-07-17 12:52:00,90.0,75.0,30.20,ENE,67,7.0,14.0,61,0.00,,,0.18,,2013-07-17 17:52:00,
2013-07-17 13:01:00,91.0,75.0,30.20,ESE,119,3.0,18.0,60,0.00,,,0.18,,2013-07-17 18:01:00,
2013-07-17 13:11:00,91.0,75.0,30.19,East,84,2.0,14.0,60,0.00,,,0.18,,2013-07-17 18:11:00,
2013-07-17 13:22:00,91.0,75.0,30.19,SE,135,6.0,13.0,60,0.00,,,0.18,,2013-07-17 18:22:00,
2013-07-17 13:32:00,91.0,75.0,30.19,East,87,4.0,10.0,59,0.00,,,0.18,,2013-07-17 18:32:00,
2013-07-17 13:43:00,91.0,75.0,30.18,ENE,74,327.0,327.0,59,-99.99,,,-99.99,,2013-07-17 18:43:00,
2013-07-17 13:52:00,91.0,74.0,30.18,East,94,7.0,13.0,57,0.00,,,0.18,,2013-07-17 18:52:00,
2013-07-17 14:01:00,91.0,75.0,30.18,ENE,73,3.0,9.0,59,0.00,,,0.18,,2013-07-17 19:01:00,
2013-07-17 14:11:00,91.0,74.0,30.18,ESE,109,4.0,11.0,58,0.00,,,0.18,,2013-07-17 19:11:00,
2013-07-17 14:22:00,91.0,73.0,30.18,SSE,147,2.0,11.0,56,0.00,,,0.18,,2013-07-17 19:22:00,
2013-07-17 14:32:00,92.0,73.0,30.17,East,101,5.0,11.0,55,0.00,,,0.18,,2013-07-17 19:32:00,
2013-07-17 14:43:00,92.0,74.0,30.17,NE,49,7.0,14.0,56,0.00,,,0.18,,2013-07-17 19:43:00,
2013-07-17 14:53:00,93.0,74.0,30.17,East,87,6.0,11.0,55,0.00,,,0.18,,2013-07-17 19:53:00,
2013-07-17 15:02:00,93.0,73.0,30.16,ENE,67,8.0,13.0,52,0.00,,,0.18,,2013-07-17 20:02:00,
2013-07-17 15:11:00,94.0,74.0,30.16,East,88,7.0,12.0,52,0.00,,,0.18,,2013-07-17 20:11:00,
2013-07-17 15:22:00,94.0,73.0,30.15,NE,44,8.0,13.0,51,0.00,,,0.18,,2013-07-17 20:22:00,
2013-07-17 15:33:00,94.0,74.0,30.15,NE,53,3.0,12.0,52,0.00,,,0.18,,2013-07-17 20:33:00,
2013-07-17 15:43:00,94.0,74.0,30.14,ENE,76,8.0,14.0,53,0.00,,,0.18,,2013-07-17 20:43:00,
2013-07-17 15:52:00,92.0,73.0,30.14,NE,48,7.0,13.0,55,0.00,,,0.18,,2013-07-17 20:52:00,
2013-07-17 16:02:00,92.0,74.0,30.14,ENE,67,3.0,8.0,56,0.00,,,0.18,,2013-07-17 21:02:00,
2013-07-17 16:12:00,90.0,75.0,30.14,ENE,60,1.0,9.0,61,0.00,,,0.18,,2013-07-17 21:12:00,
2013-07-17 16:22:00,91.0,74.0,30.14,SE,134,2.0,11.0,58,0.00,,,0.01,,2013-07-17 21:22:00,
2013-07-17 16:32:00,92.0,75.0,30.14,ENE,76,5.0,9.0,57,0.00,,,0.01,,2013-07-17 21:32:00,
2013-07-17 16:42:00,89.0,72.0,30.13,SW,215,2.0,13.0,57,0.00,,,0.01,,2013-07-17 21:42:00,
2013-07-17 16:52:00,89.0,74.0,30.13,SSE,165,5.0,10.0,61,0.00,,,0.01,,2013-07-17 21:52:00,
2013-07-17 17:01:00,90.0,75.0,30.13,ESE,119,5.0,11.0,61,0.00,,,0.01,,2013-07-17 22:01:00,
2013-07-17 17:11:00,90.0,78.0,30.15,ENE,78,5.0,20.0,67,0.05,,,0.06,,2013-07-17 22:11:00,
2013-07-17 17:22:00,81.0,74.0,30.15,East,99,9.0,20.0,79,0.06,,,0.06,,2013-07-17 22:22:00,
2013-07-17 18:11:00,77.0,74.0,30.14,ENE,70,0.0,2.0,89,0.13,,,0.13,,2013-07-17 23:11:00,
2013-07-17 18:22:00,77.0,74.0,30.13,ENE,70,0.0,1.0,92,0.11,,,0.13,,2013-07-17 23:22:00,
2013-07-17 18:32:00,77.0,74.0,30.14,NE,52,0.0,2.0,91,0.07,,,0.13,,2013-07-17 23:32:00,
2013-07-17 18:43:00,77.0,74.0,30.14,NE,52,0.0,0.0,90,0.00,,,0.13,,2013-07-17 23:43:00,
2013-07-17 18:52:00,77.0,73.0,30.13,NE,56,0.0,6.0,88,0.00,,,0.13,,2013-07-17 23:52:00,
2013-07-17 19:01:00,77.0,74.0,30.13,ENE,67,1.0,2.0,89,0.00,,,0.13,,2013-07-18 00:01:00,
2013-07-17 19:11:00,78.0,74.0,30.13,ENE,63,1.0,2.0,87,0.00,,,0.13,,2013-07-18 00:11:00,
2013-07-17 19:22:00,78.0,73.0,30.13,ENE,63,0.0,2.0,86,0.00,,,0.13,,2013-07-18 00:22:00,
2013-07-17 19:33:00,78.0,74.0,30.12,ENE,63,0.0,1.0,88,0.00,,,0.13,,2013-07-18 00:33:00,
2013-07-17 19:43:00,78.0,74.0,30.13,ENE,63,0.0,1.0,89,0.00,,,0.13,,2013-07-18 00:43:00,
2013-07-17 19:52:00,78.0,75.0,30.13,ENE,63,0.0,0.0,90,0.00,,,0.13,,2013-07-18 00:52:00,
2013-07-17 20:01:00,78.0,74.0,30.13,ENE,63,0.0,0.0,89,0.00,,,0.13,,2013-07-18 01:01:00,
2013-07-17 20:11:00,78.0,74.0,30.13,ENE,63,0.0,1.0,88,0.00,,,0.13,,2013-07-18 01:11:00,
2013-07-17 20:22:00,78.0,74.0,30.13,ENE,63,0.0,2.0,88,0.00,,,0.13,,2013-07-18 01:22:00,
2013-07-17 20:32:00,77.0,73.0,30.13,ENE,63,0.0,1.0,88,0.00,,,0.13,,2013-07-18 01:32:00,
2013-07-17 20:43:00,77.0,74.0,30.14,ENE,63,0.0,0.0,89,0.00,,,0.13,,2013-07-18 01:43:00,
2013-07-17 20:53:00,77.0,74.0,30.14,ENE,63,0.0,0.0,90,0.00,,,0.13,,2013-07-18 01:53:00,
2013-07-17 21:02:00,77.0,74.0,30.14,ENE,63,0.0,1.0,90,0.00,,,0.13,,2013-07-18 02:02:00,
2013-07-17 21:11:00,77.0,74.0,30.14,ENE,63,0.0,0.0,91,0.00,,,0.13,,2013-07-18 02:11:00,
2013-07-17 21:22:00,77.0,74.0,30.14,ENE,63,0.0,0.0,91,0.00,,,0.13,,2013-07-18 02:22:00,
2013-07-17 21:32:00,76.0,73.0,30.15,ENE,63,0.0,0.0,91,0.00,,,0.13,,2013-07-18 02:32:00,
2013-07-17 21:43:00,76.0,73.0,30.15,ENE,63,0.0,0.0,90,0.00,,,0.13,,2013-07-18 02:43:00,
2013-07-17 21:52:00,76.0,74.0,30.15,ENE,63,0.0,0.0,92,0.00,,,0.13,,2013-07-18 02:52:00,
2013-07-17 22:01:00,76.0,74.0,30.15,ENE,63,0.0,0.0,92,0.00,,,0.13,,2013-07-18 03:01:00,
2013-07-17 22:11:00,76.0,74.0,30.15,ENE,63,0.0,0.0,92,0.00,,,0.13,,2013-07-18 03:11:00,
2013-07-17 22:22:00,75.0,73.0,30.15,ENE,63,0.0,0.0,93,0.00,,,0.13,,2013-07-18 03:22:00,
2013-07-17 22:32:00,75.0,73.0,30.15,ENE,63,0.0,0.0,93,0.00,,,0.13,,2013-07-18 03:32:00,
2013-07-17 22:43:00,75.0,73.0,30.15,ENE,63,0.0,0.0,93,0.00,,,0.13,,2013-07-18 03:43:00,
2013-07-17 22:52:00,75.0,73.0,30.16,ENE,63,0.0,0.0,93,0.00,,,0.13,,2013-07-18 03:52:00,
2013-07-17 23:02:00,75.0,73.0,30.16,ENE,63,0.0,0.0,93,0.00,,,0.13,,2013-07-18 04:02:00,
2013-07-17 23:12:00,75.0,73.0,30.16,ENE,63,0.0,0.0,93,0.00,,,0.13,,2013-07-18 04:12:00,
2013-07-17 23:22:00,75.0,73.0,30.16,ENE,63,0.0,0.0,94,0.00,,,0.13,,2013-07-18 04:22:00,
2013-07-17 23:43:00,75.0,73.0,30.16,ENE,63,0.0,0.0,94,0.00,,,0.13,,2013-07-18 04:43:00,
2013-07-17 23:52:00,75.0,73.0,30.16,ENE,63,0.0,0.0,94,0.00,,,0.13,,2013-07-18 04:52:00,